Burns, OR

6:31 AM PDT on September 21, 2017 (GMT -0700)
Burns Municipal

Weather History for KBNO - December, 2013

Change the Weather History Date:

Saturday, December 7, 2013

  Actual Average Record
Temperature  
Mean Temperature -2 °F 25 °F  
Max Temperature 16 °F 35 °F 60 °F (1938)
Min Temperature -20 °F 15 °F -20 °F (2013)
Degree Days  
Heating Degree Days 67 40  
Month to date heating degree days 336 273  
Since 1 July heating degree days 2259 2274  
Cooling Degree Days 0 0  
Month to date cooling degree days 0 0  
Year to date cooling degree days 372 215  
Moisture  
Dew Point -1 °F    
Average Humidity 75    
Maximum Humidity 92    
Minimum Humidity 58    
Precipitation  
Precipitation T in 0.05 in 0.62 in (1948)
Month to date precipitation 0.17 0.35  
Year to date precipitation 6.86 9.72  
Sea Level Pressure  
Sea Level Pressure 30.05 in    
Wind  
Wind Speed 11 mph (WNW)    
Max Wind Speed 24 mph    
Max Gust Speed 32 mph    
Visibility 10 miles    
Events Snow    
T = Trace of Precipitation, MM = Missing Value Source: NWS Daily Summary

Daily Weather History Graph

Daily Weather History Graph

Search for Another Location

Airport or City:

Trip Planner

Search our weather history database for the weather conditions in past years. The results will help you decide how hot, cold, wet, or windy it might be!

Date:

Astronomy

Dec. 07, 2013 Rise Set
Actual Time 7:15 AM PST 4:19 PM PST
Civil Twilight 6:43 AM PST 4:51 PM PST
Nautical Twilight 6:07 AM PST 5:27 PM PST
Astronomical Twilight 5:32 AM PST 6:02 PM PST
Moon 10:57 AM PST (12/7) 10:13 PM PST (12/7)
Length of Visible Light 10h 08m
Length of Day
9h 03m
Waxing Crescent, 30% of the Moon is Illuminated
Dec 7
Waxing Crescent
Dec 9
First Quarter
Dec 17
Full
Dec 25
Last Quarter
Jan 1
New

Hourly Weather History & Observations

Time (PST) Temp. Windchill Dew Point Humidity Pressure Visibility Wind Dir Wind Speed Gust Speed Precip Events Conditions
12:06 AM 14.0 °F 6.5 °F 12.0 °F 92% 29.70 in 3.0 mi West 4.6 mph - 0.00 in Snow Light Snow
12:53 AM 12.0 °F - 10.0 °F 92% 29.84 in 6.0 mi Calm Calm - 0.00 in Snow Light Snow
1:53 AM 7.0 °F -3.3 °F 5.0 °F 92% 29.86 in 10.0 mi WSW 5.8 mph - 0.00 in   Mostly Cloudy
2:53 AM 10.0 °F 1.8 °F 6.1 °F 84% 29.85 in 10.0 mi West 4.6 mph - N/A   Overcast
3:53 AM 10.9 °F 4.7 °F 7.0 °F 84% 29.86 in 10.0 mi NNW 3.5 mph - N/A   Overcast
4:04 AM 10.9 °F 4.7 °F 7.0 °F 84% 29.72 in 10.0 mi NW 3.5 mph - N/A   Overcast
4:53 AM 12.0 °F -3.4 °F 7.0 °F 80% 29.88 in 10.0 mi NW 13.8 mph - 0.00 in   Overcast
5:53 AM 10.9 °F -5.9 °F 3.9 °F 73% 29.91 in 10.0 mi NW 16.1 mph - N/A   Overcast
6:53 AM 10.0 °F -6.5 °F 3.0 °F 73% 29.94 in 10.0 mi NW 15.0 mph - N/A   Overcast
7:53 AM 10.0 °F -8.1 °F 1.9 °F 70% 29.96 in 10.0 mi NW 18.4 mph - N/A   Overcast
8:53 AM 10.0 °F -8.1 °F 1.0 °F 67% 29.99 in 10.0 mi NW 18.4 mph 27.6 mph N/A   Overcast
9:53 AM 10.9 °F -5.4 °F 1.0 °F 64% 30.02 in 10.0 mi WNW 15.0 mph 21.9 mph N/A   Overcast
10:53 AM 12.9 °F -3.9 °F 1.9 °F 62% 30.02 in 10.0 mi WNW 17.3 mph - N/A   Overcast
11:53 AM 12.9 °F -4.9 °F 1.9 °F 62% 30.03 in 10.0 mi WNW 19.6 mph 24.2 mph N/A   Overcast
12:53 PM 15.1 °F -0.6 °F 3.0 °F 59% 30.04 in 10.0 mi WNW 16.1 mph - N/A   Overcast
1:53 PM 16.0 °F 2.3 °F 3.0 °F 57% 30.07 in 10.0 mi NW 12.7 mph - N/A   Clear
2:53 PM 14.0 °F -1.4 °F 1.0 °F 56% 30.10 in 10.0 mi WNW 15.0 mph - N/A   Clear
3:53 PM 9.0 °F -7.3 °F -2.0 °F 61% 30.14 in 10.0 mi West 13.8 mph - N/A   Clear
4:53 PM 5.0 °F -11.6 °F -4.0 °F 66% 30.17 in 10.0 mi West 12.7 mph - N/A   Clear
5:53 PM 1.9 °F -16.2 °F -6.0 °F 69% 30.22 in 10.0 mi West 13.8 mph - N/A   Clear
6:53 PM 1.0 °F -16.6 °F -7.1 °F 69% 30.26 in 10.0 mi West 12.7 mph - N/A   Clear
7:53 PM -0.9 °F -19.1 °F -9.0 °F 69% 30.28 in 10.0 mi West 12.7 mph - N/A   Clear
8:53 PM -4.0 °F -14.6 °F -11.0 °F 72% 30.31 in 10.0 mi West 4.6 mph - N/A   Clear
9:53 PM -11.0 °F - -15.0 °F 83% 30.34 in 10.0 mi Calm Calm - N/A   Clear
10:53 PM -11.9 °F - -16.1 °F 82% 30.36 in 10.0 mi Calm Calm - N/A   Clear
11:53 PM -11.9 °F -23.8 °F -16.1 °F 82% 30.37 in 10.0 mi NNE 4.6 mph - N/A   Clear